| time (UTC) | temp C | wind direction | speed KPH | gust KPH | rain 1hr cm | rain 24hr cm | rain mn cm | humidity % | barometer mb |
| 20260504234542 | 16 | 28 | 4.8 | 17.7 | 0.00 | 0.00 | 0.00 | 42 | 1012.1 |
| 20260504233057 | 16 | 48 | 14.5 | 25.7 | 0.00 | 0.00 | 0.00 | 42 | 1012.1 |
| 20260504231550 | 17 | 20 | 11.3 | 20.9 | 0.00 | 0.00 | 0.00 | 44 | 1011.9 |
| 20260504230052 | 17 | 80 | 9.7 | 22.5 | 0.00 | 0.00 | 0.00 | 40 | 1011.8 |
| 20260504224546 | 17 | 74 | 11.3 | 24.1 | 0.00 | 0.00 | 0.00 | 43 | 1011.8 |
| 20260504223044 | 17 | 63 | 11.3 | 24.1 | 0.00 | 0.00 | 0.00 | 42 | 1011.8 |
| 20260504221558 | 17 | 64 | 8.0 | 24.1 | 0.00 | 0.00 | 0.00 | 44 | 1011.8 |
| 20260504220113 | 16 | 39 | 11.3 | 24.1 | 0.00 | 0.00 | 0.00 | 43 | 1011.8 |
| 20260504214551 | 17 | 55 | 8.0 | 25.7 | 0.00 | 0.00 | 0.00 | 42 | 1011.8 |
| 20260504213102 | 16 | 132 | 12.9 | 25.7 | 0.00 | 0.00 | 0.00 | 41 | 1011.8 |
| 20260504211550 | 17 | 40 | 12.9 | 27.4 | 0.00 | 0.00 | 0.00 | 43 | 1011.8 |
| 20260504210048 | 17 | 57 | 14.5 | 25.7 | 0.00 | 0.00 | 0.00 | 41 | 1011.9 |
| 20260504204601 | 17 | 31 | 8.0 | 24.1 | 0.00 | 0.00 | 0.00 | 45 | 1011.8 |
| 20260504203048 | 18 | 36 | 9.7 | 24.1 | 0.00 | 0.00 | 0.00 | 42 | 1011.7 |
| 20260504201544 | 17 | 47 | 11.3 | 20.9 | 0.00 | 0.00 | 0.00 | 41 | 1012.1 |
| 20260504200057 | 17 | 10 | 9.7 | 17.7 | 0.00 | 0.00 | 0.00 | 41 | 1012.0 |
| 20260504194548 | 17 | 24 | 11.3 | 20.9 | 0.00 | 0.00 | 0.00 | 41 | 1012.1 |
| 20260504193048 | 17 | 64 | 4.8 | 16.1 | 0.00 | 0.00 | 0.00 | 40 | 1012.1 |
| 20260504191552 | 17 | 42 | 4.8 | 14.5 | 0.00 | 0.00 | 0.00 | 43 | 1012.3 |
| 20260504190048 | 16 | 106 | 6.4 | 19.3 | 0.00 | 0.00 | 0.00 | 42 | 1012.4 |
| 20260504184558 | 16 | 18 | 6.4 | 19.3 | 0.00 | 0.00 | 0.00 | 44 | 1012.8 |
| 20260504183059 | 16 | 45 | 8.0 | 27.4 | 0.00 | 0.00 | 0.00 | 44 | 1012.8 |
| 20260504181547 | 15 | 300 | 6.4 | 17.7 | 0.00 | 0.00 | 0.00 | 43 | 1012.9 |
| 20260504180050 | 15 | 67 | 11.3 | 22.5 | 0.00 | 0.00 | 0.00 | 44 | 1013.0 |
| 20260504174549 | 15 | 64 | 9.7 | 19.3 | 0.00 | 0.00 | 0.00 | 44 | 1013.1 |
| 20260504173050 | 15 | 94 | 6.4 | 20.9 | 0.00 | 0.00 | 0.00 | 44 | 1013.2 |
| 20260504171557 | 14 | 84 | 11.3 | 22.5 | 0.00 | 0.00 | 0.00 | 46 | 1013.4 |
| 20260504081552 | 6 | 140 | 0.0 | 4.8 | 0.00 | 0.00 | 0.00 | 75 | 1011.6 |
| 20260504044551 | 10 | 222 | 1.6 | 3.2 | 0.00 | 0.00 | 0.00 | 63 | 1011.2 |
| 20260504043057 | 10 | 0 | 0.0 | 4.8 | 0.00 | 0.00 | 0.00 | 63 | 1011.2 |
| 20260504041550 | 10 | 191 | 0.0 | 4.8 | 0.00 | 0.00 | 0.00 | 62 | 1011.2 |
| 20260504040050 | 10 | 218 | 0.0 | 3.2 | 0.00 | 0.00 | 0.00 | 63 | 1011.1 |
| 20260504034551 | 11 | 216 | 0.0 | 3.2 | 0.00 | 0.00 | 0.00 | 61 | 1010.9 |
| 20260504033049 | 12 | 0 | 0.0 | 6.4 | 0.00 | 0.00 | 0.00 | 56 | 1010.7 |
| 20260504031554 | 12 | 195 | 1.6 | 4.8 | 0.00 | 0.00 | 0.00 | 56 | 1010.4 |
| 20260504030048 | 13 | 166 | 0.0 | 6.4 | 0.00 | 0.00 | 0.00 | 48 | 1010.1 |
| 20260504024554 | 14 | 220 | 1.6 | 4.8 | 0.00 | 0.00 | 0.00 | 50 | 1009.9 |
| 20260504023049 | 15 | 192 | 1.6 | 4.8 | 0.00 | 0.00 | 0.00 | 45 | 1009.9 |
| 20260504021549 | 16 | 159 | 1.6 | 4.8 | 0.00 | 0.00 | 0.00 | 45 | 1009.7 |
| 20260504020135 | 17 | 203 | 1.6 | 3.2 | 0.00 | 0.00 | 0.00 | 42 | 1009.6 |
| 20260504014603 | 18 | 203 | 4.8 | 9.7 | 0.00 | 0.00 | 0.00 | 35 | 1009.7 |
| 20260504013103 | 21 | 270 | 4.8 | 12.9 | 0.00 | 0.00 | 0.00 | 34 | 1009.9 |
| 20260504011549 | 21 | 0 | 1.6 | 11.3 | 0.00 | 0.00 | 0.00 | 32 | 1010.0 |
| 20260504010048 | 22 | 203 | 4.8 | 14.5 | 0.00 | 0.00 | 0.00 | 28 | 1010.2 |
| 20260504004616 | 22 | 239 | 3.2 | 9.7 | 0.00 | 0.00 | 0.00 | 30 | 1010.3 |
| 20260504003051 | 22 | 286 | 3.2 | 14.5 | 0.00 | 0.00 | 0.00 | 27 | 1010.4 |
| 20260504001615 | 22 | 167 | 3.2 | 19.3 | 0.00 | 0.00 | 0.00 | 30 | 1010.4 |
| 20260504000056 | 23 | 190 | 8.0 | 17.7 | 0.00 | 0.00 | 0.00 | 27 | 1010.7 |